Wetterdaten: Samstag, 30.06.2007
Datum Zeit Temp. A. Feuchte A. Luftdruck Regen Wind Richtung Richtung Sonnenschein UV Solar Windben
30.06.2007 00:00 14,7 C 82 % 1010,9 hPa 0,0 mm 3,2 km/h (1 Bft) S-SW 202 0 min 0 UV-I 0 W/m 9,7 km/h (2 Bft)
30.06.2007 00:10 14,7 C 82 % 1011,0 hPa 0,0 mm 4,8 km/h (1 Bft) S-SW 202 0 min 0 UV-I 0 W/m 14,5 km/h (3 Bft)
30.06.2007 00:20 14,7 C 82 % 1011,0 hPa 0,0 mm 4,8 km/h (1 Bft) W-SW 247 0 min 0 UV-I 0 W/m 16,1 km/h (3 Bft)
30.06.2007 00:30 14,7 C 82 % 1011,0 hPa 0,0 mm 4,8 km/h (1 Bft) S-SW 202 0 min 0 UV-I 0 W/m 12,9 km/h (3 Bft)
30.06.2007 00:40 14,8 C 82 % 1011,1 hPa 0,0 mm 4,8 km/h (1 Bft) W 270 0 min 0 UV-I 0 W/m 17,7 km/h (3 Bft)
30.06.2007 00:50 14,8 C 82 % 1011,0 hPa 0,0 mm 6,4 km/h (2 Bft) S-SW 202 0 min 0 UV-I 0 W/m 20,9 km/h (4 Bft)
30.06.2007 01:00 14,7 C 82 % 1011,0 hPa 0,0 mm 6,4 km/h (2 Bft) SW 225 0 min 0 UV-I 0 W/m 19,3 km/h (3 Bft)
30.06.2007 01:10 14,6 C 83 % 1011,0 hPa 0,0 mm 4,8 km/h (1 Bft) SW 225 0 min 0 UV-I 0 W/m 17,7 km/h (3 Bft)
30.06.2007 01:20 14,7 C 82 % 1011,0 hPa 0,0 mm 4,8 km/h (1 Bft) SW 225 0 min 0 UV-I 0 W/m 14,5 km/h (3 Bft)
30.06.2007 01:30 14,8 C 82 % 1010,9 hPa 0,0 mm 4,8 km/h (1 Bft) SW 225 0 min 0 UV-I 0 W/m 14,5 km/h (3 Bft)
30.06.2007 01:40 14,7 C 82 % 1011,0 hPa 0,0 mm 4,8 km/h (1 Bft) S-SW 202 0 min 0 UV-I 0 W/m 11,3 km/h (2 Bft)
30.06.2007 01:50 14,8 C 82 % 1010,9 hPa 0,0 mm 4,8 km/h (1 Bft) W-SW 247 0 min 0 UV-I 0 W/m 16,1 km/h (3 Bft)
30.06.2007 02:00 14,8 C 82 % 1010,9 hPa 0,0 mm 4,8 km/h (1 Bft) S-SW 202 0 min 0 UV-I 0 W/m 14,5 km/h (3 Bft)
30.06.2007 02:10 14,8 C 81 % 1010,9 hPa 0,0 mm 6,4 km/h (2 Bft) S-SW 202 0 min 0 UV-I 0 W/m 16,1 km/h (3 Bft)
30.06.2007 02:20 14,9 C 81 % 1010,9 hPa 0,0 mm 4,8 km/h (1 Bft) W-SW 247 0 min 0 UV-I 0 W/m 14,5 km/h (3 Bft)
30.06.2007 02:30 14,9 C 81 % 1010,9 hPa 0,0 mm 6,4 km/h (2 Bft) S-SW 202 0 min 0 UV-I 0 W/m 16,1 km/h (3 Bft)
30.06.2007 02:40 14,9 C 81 % 1010,8 hPa 0,0 mm 4,8 km/h (1 Bft) SW 225 0 min 0 UV-I 0 W/m 16,1 km/h (3 Bft)
30.06.2007 02:50 15,0 C 81 % 1010,8 hPa 0,0 mm 6,4 km/h (2 Bft) W-SW 247 0 min 0 UV-I 0 W/m 19,3 km/h (3 Bft)
30.06.2007 03:00 15,0 C 81 % 1010,8 hPa 0,0 mm 6,4 km/h (2 Bft) W-SW 247 0 min 0 UV-I 0 W/m 17,7 km/h (3 Bft)
30.06.2007 03:10 15,0 C 81 % 1010,9 hPa 0,0 mm 4,8 km/h (1 Bft) SW 225 0 min 0 UV-I 0 W/m 16,1 km/h (3 Bft)
30.06.2007 03:20 15,0 C 81 % 1010,9 hPa 0,0 mm 6,4 km/h (2 Bft) S-SW 202 0 min 0 UV-I 0 W/m 19,3 km/h (3 Bft)
30.06.2007 03:30 15,0 C 81 % 1010,9 hPa 0,0 mm 4,8 km/h (1 Bft) W 270 0 min 0 UV-I 0 W/m 9,7 km/h (2 Bft)
30.06.2007 03:40 15,0 C 81 % 1010,8 hPa 0,0 mm 6,4 km/h (2 Bft) SW 225 0 min 0 UV-I 0 W/m 20,9 km/h (4 Bft)
30.06.2007 03:50 15,1 C 81 % 1010,7 hPa 0,0 mm 6,4 km/h (2 Bft) S-SW 202 0 min 0 UV-I 0 W/m 17,7 km/h (3 Bft)
30.06.2007 04:00 15,1 C 81 % 1010,9 hPa 0,0 mm 6,4 km/h (2 Bft) S-SW 202 0 min 0 UV-I 0 W/m 16,1 km/h (3 Bft)
30.06.2007 04:10 15,0 C 81 % 1010,9 hPa 0,0 mm 6,4 km/h (2 Bft) S-SW 202 0 min 0 UV-I 0 W/m 16,1 km/h (3 Bft)
30.06.2007 04:20 15,0 C 81 % 1010,8 hPa 0,0 mm 4,8 km/h (1 Bft) W-SW 247 0 min 0 UV-I 0 W/m 14,5 km/h (3 Bft)
30.06.2007 04:30 14,9 C 82 % 1010,8 hPa 0,0 mm 4,8 km/h (1 Bft) SW 225 0 min 0 UV-I 0 W/m 11,3 km/h (2 Bft)
30.06.2007 04:40 14,8 C 82 % 1010,9 hPa 0,0 mm 4,8 km/h (1 Bft) W-SW 247 0 min 0 UV-I 0 W/m 16,1 km/h (3 Bft)
30.06.2007 04:50 14,8 C 81 % 1011,0 hPa 0,0 mm 6,4 km/h (2 Bft) W 270 0 min 0 UV-I 0 W/m 16,1 km/h (3 Bft)
30.06.2007 05:00 14,8 C 80 % 1011,0 hPa 0,0 mm 6,4 km/h (2 Bft) W-SW 247 0 min 0 UV-I 0 W/m 20,9 km/h (4 Bft)
30.06.2007 05:10 14,9 C 80 % 1011,0 hPa 0,0 mm 6,4 km/h (2 Bft) W-SW 247 0 min 0 UV-I 0 W/m 19,3 km/h (3 Bft)
30.06.2007 05:20 14,9 C 81 % 1011,1 hPa 0,0 mm 4,8 km/h (1 Bft) W-SW 247 0 min 0 UV-I 0 W/m 12,9 km/h (3 Bft)
30.06.2007 05:30 14,8 C 81 % 1011,3 hPa 0,0 mm 3,2 km/h (1 Bft) W-SW 247 0 min 0 UV-I 0 W/m 11,3 km/h (2 Bft)
30.06.2007 05:40 14,7 C 82 % 1011,4 hPa 0,0 mm 4,8 km/h (1 Bft) W-SW 247 0 min 0 UV-I 0 W/m 14,5 km/h (3 Bft)
30.06.2007 05:50 14,6 C 84 % 1011,3 hPa 0,3 mm 3,2 km/h (1 Bft) S-SW 202 0 min 0 UV-I 0 W/m 19,3 km/h (3 Bft)
30.06.2007 06:00 14,2 C 86 % 1011,8 hPa 1,5 mm 4,8 km/h (1 Bft) W-NW 292 0 min 0 UV-I 0 W/m 14,5 km/h (3 Bft)
30.06.2007 06:10 13,7 C 88 % 1012,0 hPa 0,5 mm 6,4 km/h (2 Bft) W 270 0 min 0 UV-I 0 W/m 11,3 km/h (2 Bft)
30.06.2007 06:20 13,3 C 90 % 1012,1 hPa 1,5 mm 4,8 km/h (1 Bft) W-SW 247 0 min 0 UV-I 7 W/m 9,7 km/h (2 Bft)
30.06.2007 06:30 13,1 C 90 % 1012,0 hPa 0,0 mm 3,2 km/h (1 Bft) W-SW 247 0 min 0 UV-I 14 W/m 8,0 km/h (2 Bft)
30.06.2007 06:40 12,9 C 91 % 1012,1 hPa 0,5 mm 3,2 km/h (1 Bft) W-SW 247 0 min 0 UV-I 16 W/m 11,3 km/h (2 Bft)
30.06.2007 06:50 12,9 C 91 % 1012,1 hPa 0,3 mm 4,8 km/h (1 Bft) W-SW 247 0 min 0 UV-I 14 W/m 11,3 km/h (2 Bft)
30.06.2007 07:00 12,9 C 91 % 1012,1 hPa 0,0 mm 3,2 km/h (1 Bft) W-SW 247 0 min 0 UV-I 49 W/m 8,0 km/h (2 Bft)
30.06.2007 07:10 13,0 C 92 % 1012,2 hPa 0,0 mm 1,6 km/h (1 Bft) S-SW 202 0 min 0 UV-I 79 W/m 6,4 km/h (2 Bft)
30.06.2007 07:20 13,2 C 92 % 1012,2 hPa 0,0 mm 1,6 km/h (1 Bft) S-SW 202 0 min 0 UV-I 42 W/m 6,4 km/h (2 Bft)
30.06.2007 07:30 13,2 C 92 % 1012,2 hPa 0,0 mm 1,6 km/h (1 Bft) S-SW 202 0 min 0 UV-I 39 W/m 4,8 km/h (1 Bft)
30.06.2007 07:40 13,2 C 92 % 1012,3 hPa 0,0 mm 0,0 km/h (0 Bft) SW 225 0 min 0 UV-I 40 W/m 3,2 km/h (1 Bft)
30.06.2007 07:50 13,2 C 92 % 1012,3 hPa 0,0 mm 0,0 km/h (0 Bft) SW 225 0 min 0 UV-I 42 W/m 4,8 km/h (1 Bft)
30.06.2007 08:00 13,3 C 92 % 1012,4 hPa 0,0 mm 0,0 km/h (0 Bft) S 180 0 min 0 UV-I 51 W/m 4,8 km/h (1 Bft)
30.06.2007 08:10 13,4 C 92 % 1012,4 hPa 0,0 mm 1,6 km/h (1 Bft) S-SW 202 0 min 0 UV-I 53 W/m 4,8 km/h (1 Bft)
30.06.2007 08:20 13,6 C 91 % 1012,4 hPa 0,0 mm 3,2 km/h (1 Bft) W-SW 247 0 min 0 UV-I 37 W/m 6,4 km/h (2 Bft)
30.06.2007 08:30 13,7 C 91 % 1012,5 hPa 0,0 mm 3,2 km/h (1 Bft) SW 225 0 min 0 UV-I 37 W/m 9,7 km/h (2 Bft)
30.06.2007 08:40 13,8 C 90 % 1012,6 hPa 0,0 mm 4,8 km/h (1 Bft) W-SW 247 0 min 0 UV-I 70 W/m 11,3 km/h (2 Bft)
30.06.2007 08:50 13,9 C 90 % 1012,5 hPa 0,0 mm 3,2 km/h (1 Bft) W 270 0 min 1 UV-I 135 W/m 9,7 km/h (2 Bft)
30.06.2007 09:00 14,1 C 89 % 1012,6 hPa 0,0 mm 3,2 km/h (1 Bft) SW 225 0 min 1 UV-I 137 W/m 9,7 km/h (2 Bft)
30.06.2007 09:10 14,2 C 88 % 1012,6 hPa 0,0 mm 4,8 km/h (1 Bft) SW 225 0 min 1 UV-I 100 W/m 16,1 km/h (3 Bft)
30.06.2007 09:20 14,3 C 87 % 1012,6 hPa 0,0 mm 6,4 km/h (2 Bft) W-SW 247 0 min 1 UV-I 160 W/m 19,3 km/h (3 Bft)
30.06.2007 09:30 14,5 C 85 % 1012,6 hPa 0,0 mm 8,0 km/h (2 Bft) W 270 0 min 2 UV-I 257 W/m 19,3 km/h (3 Bft)
30.06.2007 09:40 15,1 C 84 % 1012,7 hPa 0,0 mm 6,4 km/h (2 Bft) W-SW 247 10 min 3 UV-I 682 W/m 19,3 km/h (3 Bft)
30.06.2007 09:50 15,4 C 82 % 1012,8 hPa 0,0 mm 9,2 km/h (2 Bft) W 269 0 min 2 UV-I 315 W/m 16,1 km/h (3 Bft)
30.06.2007 10:00 15,7 C 81 % 1012,8 hPa 0,0 mm 8,9 km/h (2 Bft) W-SW 249 0 min 2 UV-I 324 W/m 20,9 km/h (4 Bft)
30.06.2007 10:10 15,8 C 80 % 1012,9 hPa 0,0 mm 7,6 km/h (2 Bft) W 271 0 min 1 UV-I 225 W/m 19,3 km/h (3 Bft)
30.06.2007 10:20 15,7 C 78 % 1013,0 hPa 0,0 mm 11,3 km/h (2 Bft) W 279 0 min 2 UV-I 213 W/m 22,5 km/h (4 Bft)
30.06.2007 10:30 15,4 C 79 % 1013,0 hPa 0,0 mm 8,5 km/h (2 Bft) W-SW 248 0 min 1 UV-I 118 W/m 24,1 km/h (4 Bft)
30.06.2007 10:40 15,4 C 79 % 1013,1 hPa 0,0 mm 10,7 km/h (2 Bft) S-SW 197 0 min 1 UV-I 144 W/m 25,7 km/h (4 Bft)
30.06.2007 10:50 15,6 C 79 % 1013,1 hPa 0,0 mm 7,4 km/h (2 Bft) W 272 0 min 2 UV-I 212 W/m 19,3 km/h (3 Bft)
30.06.2007 11:00 15,9 C 77 % 1013,2 hPa 0,0 mm 8,4 km/h (2 Bft) W 260 0 min 2 UV-I 265 W/m 24,1 km/h (4 Bft)
30.06.2007 11:10 16,2 C 76 % 1013,1 hPa 0,0 mm 11,8 km/h (2 Bft) W 260 0 min 3 UV-I 315 W/m 25,7 km/h (4 Bft)
30.06.2007 11:20 16,8 C 76 % 1013,1 hPa 0,0 mm 10,8 km/h (2 Bft) SW 232 10 min 4 UV-I 462 W/m 27,4 km/h (4 Bft)
30.06.2007 11:30 16,8 C 73 % 1013,0 hPa 0,0 mm 12,1 km/h (2 Bft) W 259 0 min 3 UV-I 395 W/m 25,7 km/h (4 Bft)
30.06.2007 11:40 17,1 C 73 % 1013,1 hPa 0,0 mm 9,6 km/h (2 Bft) W 269 0 min 3 UV-I 400 W/m 24,1 km/h (4 Bft)
30.06.2007 11:50 17,0 C 71 % 1013,1 hPa 0,0 mm 10,1 km/h (2 Bft) W-SW 250 0 min 2 UV-I 261 W/m 27,4 km/h (4 Bft)
30.06.2007 12:00 16,7 C 72 % 1013,3 hPa 0,0 mm 11,8 km/h (2 Bft) W 269 0 min 1 UV-I 168 W/m 27,4 km/h (4 Bft)
30.06.2007 12:10 16,4 C 72 % 1013,4 hPa 0,0 mm 14,3 km/h (3 Bft) W-SW 238 0 min 2 UV-I 179 W/m 30,6 km/h (5 Bft)
30.06.2007 12:20 16,7 C 70 % 1013,5 hPa 0,0 mm 13,7 km/h (3 Bft) W 268 0 min 3 UV-I 320 W/m 30,6 km/h (5 Bft)
30.06.2007 12:30 17,9 C 66 % 1013,5 hPa 0,0 mm 12,9 km/h (3 Bft) W-SW 250 10 min 6 UV-I 664 W/m 33,8 km/h (5 Bft)
30.06.2007 12:40 17,7 C 65 % 1013,6 hPa 0,0 mm 10,6 km/h (2 Bft) W-SW 254 10 min 5 UV-I 569 W/m 20,9 km/h (4 Bft)
30.06.2007 12:50 17,7 C 63 % 1013,7 hPa 0,0 mm 12,2 km/h (2 Bft) SW 232 0 min 5 UV-I 412 W/m 27,4 km/h (4 Bft)
30.06.2007 13:00 17,9 C 66 % 1013,7 hPa 0,0 mm 9,7 km/h (2 Bft) W-SW 247 10 min 6 UV-I 599 W/m 22,5 km/h (4 Bft)
30.06.2007 13:10 18,4 C 63 % 1013,6 hPa 0,0 mm 8,0 km/h (2 Bft) W-SW 247 10 min 6 UV-I 613 W/m 17,7 km/h (3 Bft)
30.06.2007 13:20 18,4 C 59 % 1013,7 hPa 0,0 mm 9,7 km/h (2 Bft) W 270 10 min 6 UV-I 510 W/m 24,1 km/h (4 Bft)
30.06.2007 13:30 18,4 C 61 % 1013,7 hPa 0,0 mm 9,7 km/h (2 Bft) W-SW 247 10 min 8 UV-I 1266 W/m 20,9 km/h (4 Bft)
30.06.2007 13:40 18,9 C 57 % 1013,8 hPa 0,0 mm 9,7 km/h (2 Bft) W-SW 247 10 min 6 UV-I 605 W/m 25,7 km/h (4 Bft)
30.06.2007 13:50 18,5 C 57 % 1013,8 hPa 0,0 mm 9,7 km/h (2 Bft) W 270 10 min 8 UV-I 1137 W/m 20,9 km/h (4 Bft)
30.06.2007 14:00 18,9 C 52 % 1014,0 hPa 0,0 mm 9,7 km/h (2 Bft) W-SW 247 10 min 8 UV-I 1090 W/m 27,4 km/h (4 Bft)
30.06.2007 14:10 19,3 C 51 % 1014,0 hPa 0,0 mm 11,3 km/h (2 Bft) W 270 10 min 8 UV-I 1216 W/m 24,1 km/h (4 Bft)
30.06.2007 14:20 19,8 C 50 % 1014,0 hPa 0,0 mm 9,7 km/h (2 Bft) W 270 10 min 8 UV-I 1241 W/m 30,6 km/h (5 Bft)
30.06.2007 14:30 19,8 C 53 % 1014,0 hPa 0,0 mm 11,3 km/h (2 Bft) W 270 10 min 8 UV-I 515 W/m 27,4 km/h (4 Bft)
30.06.2007 14:40 19,3 C 56 % 1013,9 hPa 0,0 mm 8,0 km/h (2 Bft) W 270 10 min 5 UV-I 471 W/m 19,3 km/h (3 Bft)
30.06.2007 14:50 19,1 C 55 % 1014,0 hPa 0,0 mm 8,0 km/h (2 Bft) W-SW 247 0 min 4 UV-I 422 W/m 22,5 km/h (4 Bft)
30.06.2007 15:00 19,0 C 57 % 1013,9 hPa 0,0 mm 11,3 km/h (2 Bft) W-SW 247 0 min 6 UV-I 427 W/m 27,4 km/h (4 Bft)
30.06.2007 15:10 19,1 C 54 % 1014,0 hPa 0,0 mm 9,7 km/h (2 Bft) W 270 0 min 3 UV-I 260 W/m 22,5 km/h (4 Bft)
30.06.2007 15:20 18,8 C 55 % 1014,0 hPa 0,0 mm 9,7 km/h (2 Bft) W 270 0 min 3 UV-I 380 W/m 20,9 km/h (4 Bft)
30.06.2007 15:30 19,1 C 54 % 1014,1 hPa 0,0 mm 12,9 km/h (3 Bft) W 270 10 min 5 UV-I 598 W/m 27,4 km/h (4 Bft)
30.06.2007 15:40 19,3 C 55 % 1014,2 hPa 0,0 mm 9,7 km/h (2 Bft) W-SW 247 10 min 4 UV-I 499 W/m 22,5 km/h (4 Bft)
30.06.2007 15:50 19,3 C 54 % 1014,3 hPa 0,0 mm 9,7 km/h (2 Bft) W-SW 247 10 min 4 UV-I 478 W/m 25,7 km/h (4 Bft)
30.06.2007 16:00 19,4 C 55 % 1014,2 hPa 0,0 mm 8,0 km/h (2 Bft) W 270 10 min 3 UV-I 427 W/m 22,5 km/h (4 Bft)
30.06.2007 16:10 19,3 C 54 % 1014,2 hPa 0,0 mm 9,7 km/h (2 Bft) W 270 10 min 4 UV-I 550 W/m 22,5 km/h (4 Bft)
30.06.2007 16:20 19,4 C 53 % 1014,2 hPa 0,0 mm 11,3 km/h (2 Bft) W-SW 247 10 min 5 UV-I 793 W/m 24,1 km/h (4 Bft)
30.06.2007 16:30 19,5 C 53 % 1014,2 hPa 0,0 mm 11,3 km/h (2 Bft) W-SW 247 10 min 4 UV-I 603 W/m 27,4 km/h (4 Bft)
30.06.2007 16:40 19,3 C 55 % 1014,2 hPa 0,0 mm 11,3 km/h (2 Bft) W-SW 247 10 min 3 UV-I 443 W/m 25,7 km/h (4 Bft)
30.06.2007 16:50 19,2 C 56 % 1014,3 hPa 0,0 mm 9,7 km/h (2 Bft) W-SW 247 0 min 3 UV-I 323 W/m 24,1 km/h (4 Bft)
30.06.2007 17:00 19,0 C 58 % 1014,2 hPa 0,0 mm 9,7 km/h (2 Bft) W 270 0 min 2 UV-I 334 W/m 22,5 km/h (4 Bft)
30.06.2007 17:10 19,3 C 56 % 1014,2 hPa 0,0 mm 8,0 km/h (2 Bft) W-SW 247 10 min 3 UV-I 476 W/m 16,1 km/h (3 Bft)
30.06.2007 17:20 19,3 C 59 % 1014,2 hPa 0,0 mm 11,3 km/h (2 Bft) W-SW 247 0 min 2 UV-I 308 W/m 30,6 km/h (5 Bft)
30.06.2007 17:30 18,9 C 60 % 1014,2 hPa 0,0 mm 11,3 km/h (2 Bft) W 270 0 min 2 UV-I 267 W/m 24,1 km/h (4 Bft)
30.06.2007 17:40 18,7 C 63 % 1014,2 hPa 0,0 mm 9,7 km/h (2 Bft) W-SW 247 0 min 2 UV-I 234 W/m 27,4 km/h (4 Bft)
30.06.2007 17:50 18,4 C 64 % 1014,3 hPa 0,0 mm 6,4 km/h (2 Bft) W-SW 247 0 min 1 UV-I 169 W/m 17,7 km/h (3 Bft)
30.06.2007 18:00 18,2 C 64 % 1014,3 hPa 0,0 mm 6,4 km/h (2 Bft) W-SW 247 0 min 1 UV-I 130 W/m 19,3 km/h (3 Bft)
30.06.2007 18:10 18,1 C 66 % 1014,4 hPa 0,0 mm 6,4 km/h (2 Bft) SW 225 0 min 1 UV-I 118 W/m 17,7 km/h (3 Bft)
30.06.2007 18:20 17,9 C 65 % 1014,4 hPa 0,0 mm 6,4 km/h (2 Bft) W-SW 247 0 min 1 UV-I 130 W/m 20,9 km/h (4 Bft)
30.06.2007 18:30 17,9 C 66 % 1014,3 hPa 0,0 mm 6,4 km/h (2 Bft) W-SW 247 0 min 1 UV-I 132 W/m 19,3 km/h (3 Bft)
30.06.2007 18:40 17,9 C 66 % 1014,3 hPa 0,0 mm 4,8 km/h (1 Bft) S-SW 202 0 min 1 UV-I 125 W/m 19,3 km/h (3 Bft)
30.06.2007 18:50 17,8 C 67 % 1014,4 hPa 0,0 mm 6,4 km/h (2 Bft) W-SW 247 0 min 0 UV-I 67 W/m 19,3 km/h (3 Bft)
30.06.2007 19:00 17,7 C 69 % 1014,3 hPa 0,0 mm 3,2 km/h (1 Bft) SW 225 0 min 0 UV-I 49 W/m 8,0 km/h (2 Bft)
30.06.2007 19:10 17,5 C 69 % 1014,2 hPa 0,0 mm 4,8 km/h (1 Bft) W-SW 247 0 min 0 UV-I 63 W/m 11,3 km/h (2 Bft)
30.06.2007 19:20 17,5 C 70 % 1014,1 hPa 0,0 mm 3,2 km/h (1 Bft) W 270 0 min 0 UV-I 77 W/m 8,0 km/h (2 Bft)
30.06.2007 19:30 17,6 C 70 % 1014,2 hPa 0,0 mm 3,2 km/h (1 Bft) SW 225 0 min 0 UV-I 70 W/m 11,3 km/h (2 Bft)
30.06.2007 19:40 17,5 C 70 % 1014,2 hPa 0,0 mm 1,6 km/h (1 Bft) W-SW 247 0 min 0 UV-I 47 W/m 6,4 km/h (2 Bft)
30.06.2007 19:50 17,4 C 70 % 1014,1 hPa 0,0 mm 3,2 km/h (1 Bft) W-SW 247 0 min 0 UV-I 46 W/m 6,4 km/h (2 Bft)
30.06.2007 20:00 17,4 C 71 % 1014,1 hPa 0,0 mm 1,6 km/h (1 Bft) W 270 0 min 0 UV-I 49 W/m 6,4 km/h (2 Bft)
30.06.2007 20:10 17,4 C 71 % 1014,0 hPa 0,0 mm 1,6 km/h (1 Bft) W-SW 247 0 min 0 UV-I 56 W/m 4,8 km/h (1 Bft)
30.06.2007 20:20 17,5 C 71 % 1013,9 hPa 0,0 mm 1,6 km/h (1 Bft) W-SW 247 0 min 0 UV-I 51 W/m 6,4 km/h (2 Bft)
30.06.2007 20:30 17,4 C 71 % 1013,9 hPa 0,0 mm 1,6 km/h (1 Bft) W 270 0 min 0 UV-I 37 W/m 4,8 km/h (1 Bft)
30.06.2007 20:40 17,4 C 73 % 1013,9 hPa 0,0 mm 0,0 km/h (0 Bft) SW 225 0 min 0 UV-I 30 W/m 3,2 km/h (1 Bft)
30.06.2007 20:50 17,4 C 72 % 1013,8 hPa 0,0 mm 0,0 km/h (0 Bft) SW 225 0 min 0 UV-I 25 W/m 1,6 km/h (1 Bft)
30.06.2007 21:00 17,3 C 73 % 1013,7 hPa 0,0 mm 0,0 km/h (0 Bft) SW 225 0 min 0 UV-I 12 W/m 1,6 km/h (1 Bft)
30.06.2007 21:10 17,2 C 74 % 1013,6 hPa 0,0 mm 0,0 km/h (0 Bft) SW 225 0 min 0 UV-I 14 W/m 1,6 km/h (1 Bft)
30.06.2007 21:20 17,1 C 75 % 1013,6 hPa 0,0 mm 0,0 km/h (0 Bft) N 0 0 min 0 UV-I 14 W/m 0,0 km/h (0 Bft)
30.06.2007 21:30 16,9 C 76 % 1013,6 hPa 0,0 mm 0,0 km/h (0 Bft) SW 225 0 min 0 UV-I 7 W/m 1,6 km/h (1 Bft)
30.06.2007 21:40 16,8 C 77 % 1013,6 hPa 0,0 mm 0,0 km/h (0 Bft) N 0 0 min 0 UV-I 0 W/m 0,0 km/h (0 Bft)
30.06.2007 21:50 16,7 C 78 % 1013,6 hPa 0,0 mm 0,0 km/h (0 Bft) SW 225 0 min 0 UV-I 0 W/m 1,6 km/h (1 Bft)
30.06.2007 22:00 16,4 C 80 % 1013,6 hPa 0,0 mm 0,0 km/h (0 Bft) SW 225 0 min 0 UV-I 0 W/m 1,6 km/h (1 Bft)
30.06.2007 22:10 16,3 C 79 % 1013,5 hPa 0,0 mm 0,0 km/h (0 Bft) SW 225 0 min 0 UV-I 0 W/m 1,6 km/h (1 Bft)
30.06.2007 22:20 16,3 C 79 % 1013,4 hPa 0,0 mm 0,0 km/h (0 Bft) SW 225 0 min 0 UV-I 0 W/m 1,6 km/h (1 Bft)
30.06.2007 22:30 16,3 C 79 % 1013,4 hPa 0,0 mm 0,0 km/h (0 Bft) SW 225 0 min 0 UV-I 0 W/m 3,2 km/h (1 Bft)
30.06.2007 22:40 16,4 C 79 % 1013,4 hPa 0,0 mm 0,0 km/h (0 Bft) SW 225 0 min 0 UV-I 0 W/m 1,6 km/h (1 Bft)
30.06.2007 22:50 16,3 C 80 % 1013,3 hPa 0,0 mm 0,0 km/h (0 Bft) SW 225 0 min 0 UV-I 0 W/m 1,6 km/h (1 Bft)
30.06.2007 23:00 16,2 C 80 % 1013,3 hPa 0,0 mm 0,0 km/h (0 Bft) SW 225 0 min 0 UV-I 0 W/m 3,2 km/h (1 Bft)
30.06.2007 23:10 16,1 C 80 % 1013,2 hPa 0,0 mm 0,0 km/h (0 Bft) S 180 0 min 0 UV-I 0 W/m 3,2 km/h (1 Bft)
30.06.2007 23:20 16,1 C 80 % 1013,2 hPa 0,0 mm 0,0 km/h (0 Bft) S 180 0 min 0 UV-I 0 W/m 1,6 km/h (1 Bft)
30.06.2007 23:30 16,1 C 81 % 1013,2 hPa 0,0 mm 0,0 km/h (0 Bft) S 180 0 min 0 UV-I 0 W/m 3,2 km/h (1 Bft)
30.06.2007 23:40 16,1 C 80 % 1013,3 hPa 0,0 mm 0,0 km/h (0 Bft) SO 135 0 min 0 UV-I 0 W/m 3,2 km/h (1 Bft)
30.06.2007 23:50 16,2 C 80 % 1013,3 hPa 0,0 mm 0,0 km/h (0 Bft) SO 135 0 min 0 UV-I 0 W/m 3,2 km/h (1 Bft)
_ Min-Zeit 06:50 14:20 03:50 - 07:40 - - - - - 21:20
Minimum _ 12,8 C 50 % 1010,7 hPa - 0,0 km/h (0 Bft) - - - - - 0,0 km/h (0 Bft)
_ Max-Zeit 14:30 07:10 18:10 06:00 12:10 - - 09:40 13:30 13:30 12:30
Maximum _ 20,1 C 92 % 1014,4 hPa 1,5 mm 14,3 km/h
W-SW (3 Bft)
- - 10 min 8 UV-I 1266 W/m 33,8 km/h
N (5 Bft)
Durchschnitt _ 16,3 C 75 % 1012,8 hPa #4,6 mm 5,8 km/h (2 Bft) W-SW - #4:00 h 3 UV-I 289 W/m 15,4 km/h (3 Bft)